Flag for Comoros Weather past 2 weeks in Mutsamudu, Comoros

Now
77 °F

Passing clouds.


Feels Like: 79 °F
Forecast: 74 / 78 °F
Wind: 10 mph from South

Location: Dzaoudzi / Pamanzi Mayotte

Current Time: Jul 1, 2015 at 9:03:14 PM

Latest Report: Jul 1, 2015 at 8:30 PM


Visibility: N/A

Pressure: 30.04 "Hg

Humidity: 69%

Dew point: 66 °F

Location of MutsamuduLocation

Historic Weather in Mutsamudu — Graph

°F

Mutsamudu temperature yesterday

Maximum temperature yesterday: 84 °F (at 12:34 PM)
Minimum temperature yesterday: 70 °F (at 2:30 AM)
Average temperature yesterday: 78 °F

Past Weeks' High & Low Weather Summary

 TemperatureHumidityPressure
High86 °F (Jun 17, 11:37 AM)94% (Jun 18, 6:30 AM)30.12 "Hg (Jun 18, 6:30 AM)
Low70 °F (Jun 17, 3:30 AM)48% (Jul 1, 10:30 AM)29.86 "Hg (Jun 17, 3:00 AM)
Average79 °F71%30.03 "Hg
* Reported Jun 16 8:00 PM — Jul 1 8:00 PM, Mutsamudu, Weather by CustomWeather, © 2015

Note: Actual official high and low records may vary slightly from our data, if they occured in-between our weather recording intervals... More about our weather records

Advertising

Mutsamudu weather history for previous 24 hours

 ConditionsComfort  
Time TempWeatherWind HumidityBarometerVisibility
8:00 PM
Wed, Jul 1
77 °FWarm.9 mph69%30.04 "HgN/A
7:30 PM77 °FWarm.10 mph69%30.04 "HgN/A
7:00 PM77 °FWarm.10 mph69%30.04 "HgN/A
6:30 PM79 °FPassing clouds.10 mph65%30.01 "HgN/A
6:00 PM79 °FPassing clouds.10 mph65%30.01 "HgN/A
5:30 PM79 °FScattered clouds.12 mph61%30.01 "HgN/A
5:00 PM81 °FPassing clouds.13 mph58%30.01 "HgN/A
4:30 PM81 °FPassing clouds.13 mph58%30.01 "HgN/A
4:00 PM81 °FPassing clouds.13 mph58%30.01 "HgN/A
3:36 PM82 °FPassing clouds.13 mph55%30.01 "HgN/A
3:00 PM82 °FPassing clouds.13 mph55%30.01 "HgN/A
2:30 PM82 °FPassing clouds.14 mph55%30.01 "HgN/A
2:00 PM82 °FPassing clouds.15 mph58%30.01 "HgN/A
1:30 PM82 °FPassing clouds.16 mph55%30.01 "HgN/A
1:00 PM82 °FPassing clouds.16 mph55%30.01 "HgN/A
12:30 PM84 °FPassing clouds.18 mph51%30.04 "HgN/A
12:00 PM84 °FPassing clouds.17 mph51%30.04 "HgN/A
11:30 AM84 °FPassing clouds.17 mph51%30.04 "HgN/A
11:00 AM82 °FPassing clouds.16 mph51%30.07 "HgN/A
10:30 AM84 °FPassing clouds.17 mph48%30.07 "HgN/A
10:00 AM82 °FPassing clouds.17 mph55%30.07 "HgN/A
9:30 AM82 °FPassing clouds.17 mph58%30.07 "HgN/A
9:00 AM81 °FPassing clouds.17 mph66%30.07 "HgN/A
8:30 AM81 °FPassing clouds.17 mph66%30.07 "HgN/A
8:00 AM81 °FPassing clouds.17 mph66%30.04 "HgN/A
7:00 AM79 °FScattered clouds.16 mph70%30.01 "HgN/A
6:30 AM79 °FScattered clouds.16 mph74%30.01 "HgN/A
6:00 AM79 °FPassing clouds.17 mph74%29.98 "HgN/A
5:30 AM79 °FPassing clouds.15 mph74%29.98 "HgN/A
5:24 AM79 °FPassing clouds.14 mph74%29.98 "HgN/A
5:00 AM77 °FPassing clouds.14 mph79%29.98 "HgN/A
4:30 AM79 °FPartly cloudy.17 mph74%29.98 "HgN/A
4:00 AM77 °FPartly cloudy.16 mph79%29.98 "HgN/A
3:30 AM77 °FPassing clouds.13 mph79%29.98 "HgN/A
3:00 AM77 °FWarm.14 mph74%29.98 "HgN/A
2:30 AM77 °FWarm.14 mph74%29.98 "HgN/A
2:00 AM77 °FWarm.15 mph79%29.98 "HgN/A
1:30 AM77 °FWarm.14 mph79%30.01 "HgN/A
1:00 AM77 °FWarm.14 mph74%30.01 "HgN/A
12:30 AM77 °FWarm.14 mph74%30.01 "HgN/A
12:00 AM77 °FWarm.12 mph74%30.04 "HgN/A
11:30 PM
Tue, Jun 30
77 °FWarm.12 mph74%30.04 "HgN/A
11:00 PM77 °FWarm.10 mph74%30.04 "HgN/A
10:30 PM77 °FWarm.12 mph74%30.04 "HgN/A
10:00 PM77 °FWarm.10 mph74%30.04 "HgN/A
9:30 PM77 °FWarm.9 mph79%30.04 "HgN/A
9:00 PM77 °FWarm.10 mph79%30.04 "HgN/A
Weather by CustomWeather, © 2015

See weather overviewHow to use our weather pages